Time,TemperatureF,DewpointF,PressureIn,WindDirection,WindDirectionDegrees,WindSpeedMPH,WindSpeedGustMPH,Humidity,HourlyPrecipIn,Conditions,Clouds,dailyrainin,SoftwareType,DateUTC
2013-02-04 00:00:00,34.3,26.2,30.05,NNW,331,0.0,0.0,72,0.00,,---,0.00,VWS V14.00,2013-02-04 05:00:00,
2013-02-04 00:01:00,34.2,26.1,30.05,NNW,331,0.0,0.0,72,0.00,,---,0.00,VWS V14.00,2013-02-04 05:01:00,
2013-02-04 00:03:00,34.1,26.0,30.05,North,355,3.0,4.0,72,0.00,,---,0.00,VWS V14.00,2013-02-04 05:03:00,
2013-02-04 00:08:00,34.1,25.7,30.05,North,360,0.0,6.0,71,0.00,,---,0.00,VWS V14.00,2013-02-04 05:08:00,
2013-02-04 00:13:00,34.1,25.4,30.05,North,360,0.0,0.0,70,0.00,,---,0.00,VWS V14.00,2013-02-04 05:13:00,
2013-02-04 00:18:00,34.1,25.4,30.05,North,360,0.0,1.0,70,0.00,,---,0.00,VWS V14.00,2013-02-04 05:18:00,
2013-02-04 00:23:00,34.3,25.2,30.05,North,351,1.0,3.0,69,0.00,,---,0.00,VWS V14.00,2013-02-04 05:23:00,
2013-02-04 00:28:00,34.6,25.5,30.04,NNW,347,2.0,4.0,69,0.00,,---,0.00,VWS V14.00,2013-02-04 05:28:00,
2013-02-04 00:33:00,34.8,25.3,30.05,NNW,338,0.0,1.0,68,0.00,,---,0.00,VWS V14.00,2013-02-04 05:33:00,
2013-02-04 00:38:00,34.8,25.3,30.05,NNW,338,0.0,0.0,68,0.00,,---,0.00,VWS V14.00,2013-02-04 05:38:00,
2013-02-04 00:43:00,34.7,25.2,30.05,NNW,342,0.0,0.0,68,0.00,,---,0.00,VWS V14.00,2013-02-04 05:43:00,
2013-02-04 00:48:00,34.5,25.4,30.05,NNW,342,0.0,1.0,69,0.00,,---,0.00,VWS V14.00,2013-02-04 05:48:00,
2013-02-04 00:53:00,34.3,25.2,30.05,North,355,3.0,4.0,69,0.00,,---,0.00,VWS V14.00,2013-02-04 05:53:00,
2013-02-04 00:58:00,34.1,25.4,30.05,NNW,348,2.0,4.0,70,0.00,,---,0.00,VWS V14.00,2013-02-04 05:58:00,
2013-02-04 01:03:00,34.0,24.9,30.05,NNW,335,0.0,0.0,69,0.00,,---,0.00,VWS V14.00,2013-02-04 06:03:00,
2013-02-04 01:08:00,33.9,24.8,30.05,NNW,329,0.0,0.0,69,0.00,,---,0.00,VWS V14.00,2013-02-04 06:08:00,
2013-02-04 01:13:00,33.9,25.2,30.05,NW,325,0.0,0.0,70,0.00,,---,0.00,VWS V14.00,2013-02-04 06:13:00,
2013-02-04 01:18:00,33.8,25.1,30.05,NW,326,1.0,1.0,70,0.00,,---,0.00,VWS V14.00,2013-02-04 06:18:00,
2013-02-04 01:23:00,33.7,24.6,30.04,NNW,340,1.0,1.0,69,0.00,,---,0.00,VWS V14.00,2013-02-04 06:23:00,
2013-02-04 01:28:00,33.6,24.5,30.05,NNW,340,0.0,2.0,69,0.00,,---,0.00,VWS V14.00,2013-02-04 06:28:00,
2013-02-04 01:33:00,33.4,24.3,30.05,NNW,333,0.0,4.0,69,0.00,,---,0.00,VWS V14.00,2013-02-04 06:33:00,
2013-02-04 01:38:00,33.4,24.7,30.05,NNE,13,0.0,1.0,70,0.00,,---,0.00,VWS V14.00,2013-02-04 06:38:00,
2013-02-04 01:43:00,33.3,24.6,30.05,North,355,2.0,2.0,70,0.00,,---,0.00,VWS V14.00,2013-02-04 06:43:00,
2013-02-04 01:48:00,33.2,24.8,30.04,NNW,328,7.0,7.0,71,0.00,,---,0.00,VWS V14.00,2013-02-04 06:48:00,
2013-02-04 01:53:00,33.2,24.1,30.05,WNW,299,1.0,8.0,69,0.00,,---,0.00,VWS V14.00,2013-02-04 06:53:00,
2013-02-04 01:58:00,33.2,24.1,30.05,NW,310,0.0,0.0,69,0.00,,---,0.00,VWS V14.00,2013-02-04 06:58:00,
2013-02-04 02:03:00,33.3,24.2,30.05,NNW,327,2.0,3.0,69,0.00,,---,0.00,VWS V14.00,2013-02-04 07:03:00,
2013-02-04 02:08:00,33.2,24.5,30.05,North,355,2.0,2.0,70,0.00,,---,0.00,VWS V14.00,2013-02-04 07:08:00,
2013-02-04 02:13:00,33.2,24.1,30.05,NNW,338,1.0,4.0,69,0.00,,---,0.00,VWS V14.00,2013-02-04 07:13:00,
2013-02-04 02:18:00,33.1,24.0,30.05,NW,319,0.0,0.0,69,0.00,,---,0.00,VWS V14.00,2013-02-04 07:18:00,
2013-02-04 02:23:00,33.0,24.0,30.04,NNW,332,0.0,0.0,69,0.00,,---,0.00,VWS V14.00,2013-02-04 07:23:00,
2013-02-04 02:28:00,32.9,23.9,30.05,North,9,0.0,0.0,69,0.00,,---,0.00,VWS V14.00,2013-02-04 07:28:00,
2013-02-04 02:33:00,32.8,23.8,30.05,NNW,346,0.0,1.0,69,0.00,,---,0.00,VWS V14.00,2013-02-04 07:33:00,
2013-02-04 02:38:00,32.8,23.8,30.05,NW,326,1.0,5.0,69,0.00,,---,0.00,VWS V14.00,2013-02-04 07:38:00,
2013-02-04 02:43:00,32.7,23.7,30.05,NNW,328,0.0,1.0,69,0.00,,---,0.00,VWS V14.00,2013-02-04 07:43:00,
2013-02-04 02:48:00,32.7,23.7,30.05,North,360,0.0,2.0,69,0.00,,---,0.00,VWS V14.00,2013-02-04 07:48:00,
2013-02-04 02:53:00,32.6,23.6,30.05,NW,325,0.0,0.0,69,0.00,,---,0.00,VWS V14.00,2013-02-04 07:53:00,
2013-02-04 02:58:00,32.5,23.5,30.05,NW,326,0.0,1.0,69,0.00,,---,0.00,VWS V14.00,2013-02-04 07:58:00,
2013-02-04 03:03:00,32.4,23.0,30.05,NW,326,0.0,0.0,68,0.00,,---,0.00,VWS V14.00,2013-02-04 08:03:00,
2013-02-04 03:08:00,32.3,23.6,30.05,NNW,334,3.0,3.0,70,0.00,,---,0.00,VWS V14.00,2013-02-04 08:08:00,
2013-02-04 03:13:00,32.1,23.4,30.05,NW,313,0.0,4.0,70,0.00,,---,0.00,VWS V14.00,2013-02-04 08:13:00,
2013-02-04 03:18:00,32.0,23.0,30.05,NNW,340,0.0,0.0,69,0.00,,---,0.00,VWS V14.00,2013-02-04 08:18:00,
2013-02-04 03:23:00,32.0,23.0,30.06,North,355,0.0,0.0,69,0.00,,---,0.00,VWS V14.00,2013-02-04 08:23:00,
2013-02-04 03:28:00,32.1,22.8,30.06,NW,315,0.0,0.0,68,0.00,,---,0.00,VWS V14.00,2013-02-04 08:28:00,
2013-02-04 03:33:00,32.1,22.8,30.07,NW,313,0.0,0.0,68,0.00,,---,0.00,VWS V14.00,2013-02-04 08:33:00,
2013-02-04 03:38:00,32.1,23.1,30.07,NNW,331,0.0,0.0,69,0.00,,---,0.00,VWS V14.00,2013-02-04 08:38:00,
2013-02-04 03:43:00,32.0,23.0,30.06,NNW,331,0.0,0.0,69,0.00,,---,0.00,VWS V14.00,2013-02-04 08:43:00,
2013-02-04 03:48:00,31.9,22.9,30.06,NNW,331,0.0,0.0,69,0.00,,---,0.00,VWS V14.00,2013-02-04 08:48:00,
2013-02-04 03:53:00,31.7,23.0,30.06,NNW,331,0.0,0.0,70,0.00,,---,0.00,VWS V14.00,2013-02-04 08:53:00,
2013-02-04 03:58:00,31.5,22.9,30.06,NNW,331,0.0,0.0,70,0.00,,---,0.00,VWS V14.00,2013-02-04 08:58:00,
2013-02-04 04:03:00,31.4,22.8,30.06,NNW,331,0.0,0.0,70,0.00,,---,0.00,VWS V14.00,2013-02-04 09:03:00,
2013-02-04 04:08:00,31.3,22.7,30.06,WNW,298,0.0,0.0,70,0.00,,---,0.00,VWS V14.00,2013-02-04 09:08:00,
2013-02-04 04:13:00,31.4,22.4,30.06,WNW,298,0.0,0.0,69,0.00,,---,0.00,VWS V14.00,2013-02-04 09:13:00,
2013-02-04 04:18:00,31.5,22.5,30.06,NW,310,0.0,2.0,69,0.00,,---,0.00,VWS V14.00,2013-02-04 09:18:00,
2013-02-04 04:23:00,31.7,22.4,30.06,NW,321,0.0,0.0,68,0.00,,---,0.00,VWS V14.00,2013-02-04 09:23:00,
2013-02-04 04:28:00,31.7,23.0,30.05,North,360,0.0,3.0,70,0.00,,---,0.00,VWS V14.00,2013-02-04 09:28:00,
2013-02-04 04:33:00,31.7,22.7,30.05,North,360,0.0,0.0,69,0.00,,---,0.00,VWS V14.00,2013-02-04 09:33:00,
2013-02-04 04:38:00,31.6,22.3,30.06,North,360,0.0,0.0,68,0.00,,---,0.00,VWS V14.00,2013-02-04 09:38:00,
2013-02-04 04:43:00,31.5,22.5,30.06,North,360,0.0,0.0,69,0.00,,---,0.00,VWS V14.00,2013-02-04 09:43:00,
2013-02-04 04:48:00,31.2,22.6,30.06,North,360,0.0,0.0,70,0.00,,---,0.00,VWS V14.00,2013-02-04 09:48:00,
2013-02-04 04:53:00,31.0,22.7,30.06,North,360,0.0,0.0,71,0.00,,---,0.00,VWS V14.00,2013-02-04 09:53:00,
2013-02-04 04:58:00,30.8,22.9,30.06,North,360,0.0,0.0,72,0.00,,---,0.00,VWS V14.00,2013-02-04 09:58:00,
2013-02-04 05:03:00,30.7,23.1,30.06,North,360,0.0,0.0,73,0.00,,---,0.00,VWS V14.00,2013-02-04 10:03:00,
2013-02-04 05:08:00,30.5,22.6,30.06,North,360,0.0,0.0,72,0.00,,---,0.00,VWS V14.00,2013-02-04 10:08:00,
2013-02-04 05:13:00,30.3,22.0,30.06,North,360,0.0,0.0,71,0.00,,---,0.00,VWS V14.00,2013-02-04 10:13:00,
2013-02-04 05:18:00,30.3,22.7,30.06,North,360,0.0,0.0,73,0.00,,---,0.00,VWS V14.00,2013-02-04 10:18:00,
2013-02-04 05:23:00,30.3,22.4,30.06,North,360,0.0,0.0,72,0.00,,---,0.00,VWS V14.00,2013-02-04 10:23:00,
2013-02-04 05:28:00,30.5,22.6,30.06,NNW,342,0.0,0.0,72,0.00,,---,0.00,VWS V14.00,2013-02-04 10:28:00,
2013-02-04 05:33:00,30.7,22.4,30.06,NNW,342,0.0,3.0,71,0.00,,---,0.00,VWS V14.00,2013-02-04 10:33:00,
2013-02-04 05:38:00,31.0,22.7,30.06,NNW,332,0.0,0.0,71,0.00,,---,0.00,VWS V14.00,2013-02-04 10:38:00,
2013-02-04 05:43:00,31.2,22.6,30.06,NNW,329,0.0,1.0,70,0.00,,---,0.00,VWS V14.00,2013-02-04 10:43:00,
2013-02-04 05:48:00,31.4,22.8,30.06,NNW,329,0.0,0.0,70,0.00,,---,0.00,VWS V14.00,2013-02-04 10:48:00,
2013-02-04 05:53:00,31.5,23.2,30.06,NNW,341,0.0,0.0,71,0.00,,---,0.00,VWS V14.00,2013-02-04 10:53:00,
2013-02-04 05:58:00,31.5,23.2,30.07,NNW,341,0.0,0.0,71,0.00,,---,0.00,VWS V14.00,2013-02-04 10:58:00,
2013-02-04 06:03:00,31.4,22.8,30.07,NNW,341,0.0,0.0,70,0.00,,---,0.00,VWS V14.00,2013-02-04 11:03:00,
2013-02-04 06:08:00,31.4,22.8,30.07,NNW,341,0.0,0.0,70,0.00,,---,0.00,VWS V14.00,2013-02-04 11:08:00,
2013-02-04 06:13:00,31.2,22.9,30.06,NNW,341,0.0,0.0,71,0.00,,---,0.00,VWS V14.00,2013-02-04 11:13:00,
2013-02-04 06:18:00,31.1,22.8,30.06,NNW,341,0.0,0.0,71,0.00,,---,0.00,VWS V14.00,2013-02-04 11:18:00,
2013-02-04 06:23:00,30.9,22.6,30.07,NNW,341,0.0,0.0,71,0.00,,---,0.00,VWS V14.00,2013-02-04 11:23:00,
2013-02-04 06:28:00,30.7,23.1,30.08,NNW,341,0.0,0.0,73,0.00,,---,0.00,VWS V14.00,2013-02-04 11:28:00,
2013-02-04 06:33:00,30.5,22.9,30.08,NNW,341,0.0,0.0,73,0.00,,---,0.00,VWS V14.00,2013-02-04 11:33:00,
2013-02-04 06:38:00,30.3,22.7,30.08,NNW,341,0.0,0.0,73,0.00,,---,0.00,VWS V14.00,2013-02-04 11:38:00,
2013-02-04 06:43:00,30.3,23.0,30.08,NNW,341,0.0,0.0,74,0.00,,---,0.00,VWS V14.00,2013-02-04 11:43:00,
2013-02-04 06:48:00,30.1,22.8,30.07,NNW,341,0.0,0.0,74,0.00,,---,0.00,VWS V14.00,2013-02-04 11:48:00,
2013-02-04 06:53:00,30.0,23.0,30.08,NNW,341,0.0,0.0,75,0.00,,---,0.00,VWS V14.00,2013-02-04 11:53:00,
2013-02-04 06:58:00,30.1,23.1,30.08,NNW,341,0.0,0.0,75,0.00,,---,0.00,VWS V14.00,2013-02-04 11:58:00,
2013-02-04 07:03:00,30.1,23.5,30.08,NNW,341,0.0,0.0,76,0.00,,---,0.00,VWS V14.00,2013-02-04 12:03:00,
2013-02-04 07:08:00,30.1,23.5,30.08,NNW,341,0.0,0.0,76,0.00,,---,0.00,VWS V14.00,2013-02-04 12:08:00,
2013-02-04 07:13:00,30.1,23.5,30.09,NNW,341,0.0,0.0,76,0.00,,---,0.00,VWS V14.00,2013-02-04 12:13:00,
2013-02-04 07:18:00,30.1,23.5,30.09,NNW,341,0.0,0.0,76,0.00,,---,0.00,VWS V14.00,2013-02-04 12:18:00,
2013-02-04 07:23:00,30.1,23.1,30.09,NNW,341,0.0,0.0,75,0.00,,---,0.00,VWS V14.00,2013-02-04 12:23:00,
2013-02-04 07:28:00,30.5,23.5,30.09,NNW,341,0.0,1.0,75,0.00,,---,0.00,VWS V14.00,2013-02-04 12:28:00,
2013-02-04 07:33:00,30.8,23.5,30.10,NNW,341,0.0,0.0,74,0.00,,---,0.00,VWS V14.00,2013-02-04 12:33:00,
2013-02-04 07:38:00,31.2,23.9,30.10,NNW,341,0.0,1.0,74,0.00,,---,0.00,VWS V14.00,2013-02-04 12:38:00,
2013-02-04 07:43:00,31.6,24.0,30.11,North,351,0.0,2.0,73,0.00,,---,0.00,VWS V14.00,2013-02-04 12:43:00,
2013-02-04 07:48:00,32.0,24.3,30.12,North,351,0.0,2.0,73,0.00,,---,0.00,VWS V14.00,2013-02-04 12:48:00,
2013-02-04 07:53:00,32.2,24.5,30.11,North,351,3.0,3.0,73,0.00,,---,0.00,VWS V14.00,2013-02-04 12:53:00,
2013-02-04 07:58:00,32.4,24.1,30.11,North,351,0.0,0.0,71,0.00,,---,0.00,VWS V14.00,2013-02-04 12:58:00,
2013-02-04 08:03:00,32.8,24.5,30.11,North,351,0.0,0.0,71,0.00,,---,0.00,VWS V14.00,2013-02-04 13:03:00,
2013-02-04 08:08:00,33.0,25.0,30.11,North,351,0.0,0.0,72,0.00,,---,0.00,VWS V14.00,2013-02-04 13:08:00,
2013-02-04 08:13:00,33.2,25.2,30.12,North,351,0.0,0.0,72,0.00,,---,0.00,VWS V14.00,2013-02-04 13:13:00,
2013-02-04 08:18:00,33.3,24.9,30.11,North,351,0.0,0.0,71,0.00,,---,0.00,VWS V14.00,2013-02-04 13:18:00,
2013-02-04 08:23:00,33.4,24.7,30.11,North,351,0.0,0.0,70,0.00,,---,0.00,VWS V14.00,2013-02-04 13:23:00,
2013-02-04 08:28:00,33.6,25.5,30.11,North,351,0.0,2.0,72,0.00,,---,0.00,VWS V14.00,2013-02-04 13:28:00,
2013-02-04 08:33:00,33.7,25.6,30.12,North,351,0.0,0.0,72,0.00,,---,0.00,VWS V14.00,2013-02-04 13:33:00,
2013-02-04 08:38:00,33.9,24.8,30.12,North,351,0.0,0.0,69,0.00,,---,0.00,VWS V14.00,2013-02-04 13:38:00,
2013-02-04 08:43:00,34.1,25.0,30.12,North,351,0.0,0.0,69,0.00,,---,0.00,VWS V14.00,2013-02-04 13:43:00,
2013-02-04 08:48:00,34.4,25.0,30.13,NNW,342,0.0,0.0,68,0.00,,---,0.00,VWS V14.00,2013-02-04 13:48:00,
2013-02-04 08:53:00,34.8,25.7,30.13,NNW,334,0.0,0.0,69,0.00,,---,0.00,VWS V14.00,2013-02-04 13:53:00,
2013-02-04 08:58:00,35.2,25.7,30.13,NNW,334,0.0,0.0,68,0.00,,---,0.00,VWS V14.00,2013-02-04 13:58:00,
2013-02-04 09:03:00,35.5,26.0,30.14,NNW,334,2.0,3.0,68,0.00,,---,0.00,VWS V14.00,2013-02-04 14:03:00,
2013-02-04 09:08:00,35.8,26.3,30.14,NNW,327,1.0,3.0,68,0.00,,---,0.00,VWS V14.00,2013-02-04 14:08:00,
2013-02-04 09:13:00,36.1,26.2,30.14,NNW,327,0.0,0.0,67,0.00,,---,0.00,VWS V14.00,2013-02-04 14:13:00,
2013-02-04 09:18:00,36.4,25.4,30.14,NNW,327,0.0,1.0,64,0.00,,---,0.00,VWS V14.00,2013-02-04 14:18:00,
2013-02-04 09:23:00,36.7,26.4,30.14,NNW,327,0.0,1.0,66,0.00,,---,0.00,VWS V14.00,2013-02-04 14:23:00,
2013-02-04 09:28:00,37.0,26.0,30.14,NNW,327,0.0,0.0,64,0.00,,---,0.00,VWS V14.00,2013-02-04 14:28:00,
2013-02-04 09:33:00,37.2,25.8,30.14,NNW,327,0.0,0.0,63,0.00,,---,0.00,VWS V14.00,2013-02-04 14:33:00,
2013-02-04 09:38:00,37.5,26.8,30.13,NNW,327,0.0,1.0,65,0.00,,---,0.00,VWS V14.00,2013-02-04 14:38:00,
2013-02-04 09:43:00,37.9,26.1,30.13,NNW,327,0.0,0.0,62,0.00,,---,0.00,VWS V14.00,2013-02-04 14:43:00,
2013-02-04 09:48:00,38.4,25.7,30.14,NNW,327,0.0,0.0,60,0.00,,---,0.00,VWS V14.00,2013-02-04 14:48:00,
2013-02-04 09:53:00,39.0,26.7,30.14,NNW,327,0.0,0.0,61,0.00,,---,0.00,VWS V14.00,2013-02-04 14:53:00,
2013-02-04 09:58:00,39.8,26.7,30.14,NW,305,0.0,0.0,59,0.00,,---,0.00,VWS V14.00,2013-02-04 14:58:00,
2013-02-04 10:03:00,40.2,25.3,30.14,NW,305,0.0,0.0,55,0.00,,---,0.00,VWS V14.00,2013-02-04 15:03:00,
2013-02-04 10:08:00,40.5,26.0,30.13,NW,305,0.0,0.0,56,0.00,,---,0.00,VWS V14.00,2013-02-04 15:08:00,
2013-02-04 10:13:00,40.6,27.0,30.12,NW,306,0.0,0.0,58,0.00,,---,0.00,VWS V14.00,2013-02-04 15:13:00,
2013-02-04 10:18:00,40.8,26.3,30.13,NW,305,0.0,0.0,56,0.00,,---,0.00,VWS V14.00,2013-02-04 15:18:00,
2013-02-04 10:23:00,40.9,26.0,30.15,NW,305,0.0,1.0,55,0.00,,---,0.00,VWS V14.00,2013-02-04 15:23:00,
2013-02-04 10:28:00,40.9,26.4,30.15,NW,305,0.0,1.0,56,0.00,,---,0.00,VWS V14.00,2013-02-04 15:28:00,
2013-02-04 10:33:00,41.0,27.4,30.14,NW,305,0.0,1.0,58,0.00,,---,0.00,VWS V14.00,2013-02-04 15:33:00,
2013-02-04 10:38:00,41.1,26.2,30.15,NW,325,0.0,1.0,55,0.00,,---,0.00,VWS V14.00,2013-02-04 15:38:00,
2013-02-04 10:43:00,41.3,25.9,30.14,NW,325,0.0,0.0,54,0.00,,---,0.00,VWS V14.00,2013-02-04 15:43:00,
2013-02-04 10:48:00,41.5,26.1,30.15,NW,325,1.0,4.0,54,0.00,,---,0.00,VWS V14.00,2013-02-04 15:48:00,
2013-02-04 10:53:00,41.7,26.7,30.15,NW,304,2.0,2.0,55,0.00,,---,0.00,VWS V14.00,2013-02-04 15:53:00,
2013-02-04 10:58:00,42.0,26.1,30.15,NW,304,0.0,2.0,53,0.00,,---,0.00,VWS V14.00,2013-02-04 15:58:00,
2013-02-04 11:03:00,42.2,27.2,30.15,NW,304,2.0,2.0,55,0.00,,---,0.00,VWS V14.00,2013-02-04 16:03:00,
2013-02-04 11:08:00,42.5,26.6,30.15,WSW,248,4.0,4.0,53,0.00,,---,0.00,VWS V14.00,2013-02-04 16:08:00,
2013-02-04 11:13:00,42.7,26.3,30.15,SW,220,6.0,6.0,52,0.00,,---,0.00,VWS V14.00,2013-02-04 16:13:00,
2013-02-04 11:18:00,42.9,27.4,30.15,SW,231,6.0,7.0,54,0.00,,---,0.00,VWS V14.00,2013-02-04 16:18:00,
2013-02-04 11:23:00,43.1,27.6,30.15,SW,234,0.0,0.0,54,0.00,,---,0.00,VWS V14.00,2013-02-04 16:23:00,
2013-02-04 11:28:00,43.2,27.2,30.15,WSW,244,0.0,5.0,53,0.00,,---,0.00,VWS V14.00,2013-02-04 16:28:00,
2013-02-04 11:33:00,43.2,26.8,30.14,WSW,244,0.0,0.0,52,0.00,,---,0.00,VWS V14.00,2013-02-04 16:33:00,
2013-02-04 11:38:00,43.4,27.0,30.15,WSW,244,0.0,3.0,52,0.00,,---,0.00,VWS V14.00,2013-02-04 16:38:00,
2013-02-04 11:43:00,43.6,28.1,30.14,WSW,244,4.0,4.0,54,0.00,,---,0.00,VWS V14.00,2013-02-04 16:43:00,
2013-02-04 11:48:00,43.8,27.8,30.13,WSW,244,0.0,1.0,53,0.00,,---,0.00,VWS V14.00,2013-02-04 16:48:00,
2013-02-04 11:53:00,44.0,27.5,30.13,WSW,244,0.0,0.0,52,0.00,,---,0.00,VWS V14.00,2013-02-04 16:53:00,
2013-02-04 11:58:00,44.3,27.8,30.13,WSW,244,0.0,0.0,52,0.00,,---,0.00,VWS V14.00,2013-02-04 16:58:00,
2013-02-04 12:03:00,44.5,27.5,30.13,WSW,244,0.0,3.0,51,0.00,,---,0.00,VWS V14.00,2013-02-04 17:03:00,
2013-02-04 12:08:00,44.7,27.7,30.12,WSW,244,0.0,0.0,51,0.00,,---,0.00,VWS V14.00,2013-02-04 17:08:00,
2013-02-04 12:13:00,44.9,27.4,30.13,WSW,244,0.0,1.0,50,0.00,,---,0.00,VWS V14.00,2013-02-04 17:13:00,
2013-02-04 12:18:00,45.2,28.2,30.12,WSW,244,0.0,1.0,51,0.00,,---,0.00,VWS V14.00,2013-02-04 17:18:00,
2013-02-04 12:23:00,45.6,28.0,30.12,WSW,249,3.0,4.0,50,0.00,,---,0.00,VWS V14.00,2013-02-04 17:23:00,
2013-02-04 12:28:00,46.0,29.4,30.11,WSW,249,1.0,3.0,52,0.00,,---,0.00,VWS V14.00,2013-02-04 17:28:00,
2013-02-04 12:33:00,46.4,27.8,30.11,WSW,249,0.0,1.0,48,0.00,,---,0.00,VWS V14.00,2013-02-04 17:33:00,
2013-02-04 12:38:00,46.8,27.6,30.11,WSW,249,0.0,2.0,47,0.00,,---,0.00,VWS V14.00,2013-02-04 17:38:00,
2013-02-04 12:43:00,47.2,27.5,30.10,WSW,249,1.0,3.0,46,0.00,,---,0.00,VWS V14.00,2013-02-04 17:43:00,
2013-02-04 12:48:00,47.5,27.2,30.10,WSW,249,0.0,2.0,45,0.00,,---,0.00,VWS V14.00,2013-02-04 17:48:00,
2013-02-04 12:53:00,47.9,27.6,30.10,WSW,249,0.0,0.0,45,0.00,,---,0.00,VWS V14.00,2013-02-04 17:53:00,
2013-02-04 12:58:00,48.6,27.1,30.10,WSW,249,0.0,1.0,43,0.00,,---,0.00,VWS V14.00,2013-02-04 17:58:00,
2013-02-04 13:03:00,49.3,26.0,30.09,WSW,249,0.0,1.0,40,0.00,,---,0.00,VWS V14.00,2013-02-04 18:03:00,
2013-02-04 13:08:00,49.5,26.2,30.09,SW,217,3.0,3.0,40,0.00,,---,0.00,VWS V14.00,2013-02-04 18:08:00,
2013-02-04 13:13:00,49.6,25.0,30.09,SW,229,2.0,5.0,38,0.00,,---,0.00,VWS V14.00,2013-02-04 18:13:00,
2013-02-04 13:18:00,49.6,25.0,30.09,SW,229,0.0,0.0,38,0.00,,---,0.00,VWS V14.00,2013-02-04 18:18:00,
2013-02-04 13:23:00,49.6,26.3,30.09,SW,223,2.0,3.0,40,0.00,,---,0.00,VWS V14.00,2013-02-04 18:23:00,
2013-02-04 13:28:00,49.6,26.9,30.08,WSW,238,6.0,8.0,41,0.00,,---,0.00,VWS V14.00,2013-02-04 18:28:00,
2013-02-04 13:33:00,49.5,27.4,30.08,WSW,240,3.0,5.0,42,0.00,,---,0.00,VWS V14.00,2013-02-04 18:33:00,
2013-02-04 13:38:00,49.4,26.7,30.08,WSW,238,2.0,5.0,41,0.00,,---,0.00,VWS V14.00,2013-02-04 18:38:00,
2013-02-04 13:43:00,49.3,26.6,30.08,WSW,238,2.0,3.0,41,0.00,,---,0.00,VWS V14.00,2013-02-04 18:43:00,
2013-02-04 13:48:00,49.4,27.3,30.08,SW,226,2.0,5.0,42,0.00,,---,0.00,VWS V14.00,2013-02-04 18:48:00,
2013-02-04 13:53:00,49.3,26.6,30.07,SW,226,3.0,6.0,41,0.00,,---,0.00,VWS V14.00,2013-02-04 18:53:00,
2013-02-04 13:58:00,49.3,26.6,30.08,SSW,207,0.0,3.0,41,0.00,,---,0.00,VWS V14.00,2013-02-04 18:58:00,
2013-02-04 14:03:00,49.3,27.2,30.08,SSW,207,3.0,5.0,42,0.00,,---,0.00,VWS V14.00,2013-02-04 19:03:00,
2013-02-04 14:08:00,49.3,27.2,30.08,WSW,238,4.0,9.0,42,0.00,,---,0.00,VWS V14.00,2013-02-04 19:08:00,
2013-02-04 14:13:00,49.3,26.6,30.08,WSW,251,0.0,4.0,41,0.00,,---,0.00,VWS V14.00,2013-02-04 19:13:00,
2013-02-04 14:18:00,49.1,26.4,30.07,West,261,6.0,7.0,41,0.00,,---,0.00,VWS V14.00,2013-02-04 19:18:00,
2013-02-04 14:23:00,48.8,27.3,30.07,West,261,4.0,5.0,43,0.00,,---,0.00,VWS V14.00,2013-02-04 19:23:00,
2013-02-04 14:28:00,48.8,27.3,30.07,WSW,240,3.0,6.0,43,0.00,,---,0.00,VWS V14.00,2013-02-04 19:28:00,
2013-02-04 14:33:00,48.7,27.2,30.07,SW,236,2.0,6.0,43,0.00,,---,0.00,VWS V14.00,2013-02-04 19:33:00,
2013-02-04 14:38:00,48.6,27.1,30.07,SW,234,5.0,7.0,43,0.00,,---,0.00,VWS V14.00,2013-02-04 19:38:00,
2013-02-04 14:43:00,48.6,26.6,30.06,SW,230,5.0,6.0,42,0.00,,---,0.00,VWS V14.00,2013-02-04 19:43:00,
2013-02-04 14:48:00,48.6,27.1,30.06,WSW,250,2.0,5.0,43,0.00,,---,0.00,VWS V14.00,2013-02-04 19:48:00,
2013-02-04 14:53:00,48.6,26.6,30.06,SW,216,0.0,3.0,42,0.00,,---,0.00,VWS V14.00,2013-02-04 19:53:00,
2013-02-04 14:58:00,48.7,26.6,30.06,SW,216,5.0,6.0,42,0.00,,---,0.00,VWS V14.00,2013-02-04 19:58:00,
2013-02-04 15:03:00,48.7,27.2,30.06,SW,216,2.0,4.0,43,0.00,,---,0.00,VWS V14.00,2013-02-04 20:03:00,
2013-02-04 15:08:00,48.6,27.7,30.06,West,273,5.0,9.0,44,0.00,,---,0.00,VWS V14.00,2013-02-04 20:08:00,
2013-02-04 15:13:00,48.6,28.2,30.06,West,259,5.0,5.0,45,0.00,,---,0.00,VWS V14.00,2013-02-04 20:13:00,
2013-02-04 15:18:00,48.6,27.7,30.05,WSW,252,3.0,10.0,44,0.00,,---,0.00,VWS V14.00,2013-02-04 20:18:00,
2013-02-04 15:23:00,48.5,28.1,30.05,WSW,252,2.0,2.0,45,0.00,,---,0.00,VWS V14.00,2013-02-04 20:23:00,
2013-02-04 15:28:00,48.5,27.6,30.05,WSW,242,5.0,6.0,44,0.00,,---,0.00,VWS V14.00,2013-02-04 20:28:00,
2013-02-04 15:33:00,48.5,27.0,30.05,SW,223,3.0,7.0,43,0.00,,---,0.00,VWS V14.00,2013-02-04 20:33:00,
2013-02-04 15:38:00,48.5,27.0,30.05,SW,225,6.0,6.0,43,0.00,,---,0.00,VWS V14.00,2013-02-04 20:38:00,
2013-02-04 15:43:00,48.3,26.9,30.06,SW,225,7.0,10.0,43,0.00,,---,0.00,VWS V14.00,2013-02-04 20:43:00,
2013-02-04 15:48:00,48.3,27.4,30.05,SW,235,0.0,5.0,44,0.00,,---,0.00,VWS V14.00,2013-02-04 20:48:00,
2013-02-04 15:53:00,48.3,26.9,30.05,SW,225,5.0,9.0,43,0.00,,---,0.00,VWS V14.00,2013-02-04 20:53:00,
2013-02-04 15:58:00,48.3,26.9,30.05,SSW,213,0.0,0.0,43,0.00,,---,0.00,VWS V14.00,2013-02-04 20:58:00,
2013-02-04 16:03:00,48.3,26.3,30.04,SSW,213,5.0,7.0,42,0.00,,---,0.00,VWS V14.00,2013-02-04 21:03:00,
2013-02-04 16:08:00,48.2,27.9,30.05,SSW,213,0.0,3.0,45,0.00,,---,0.00,VWS V14.00,2013-02-04 21:08:00,
2013-02-04 16:13:00,48.2,27.3,30.04,SW,223,6.0,6.0,44,0.00,,---,0.00,VWS V14.00,2013-02-04 21:13:00,
2013-02-04 16:18:00,48.2,26.8,30.05,SW,223,1.0,5.0,43,0.00,,---,0.00,VWS V14.00,2013-02-04 21:18:00,
2013-02-04 16:23:00,48.2,27.3,30.05,SW,223,0.0,0.0,44,0.00,,---,0.00,VWS V14.00,2013-02-04 21:23:00,
2013-02-04 16:28:00,48.2,27.3,30.05,SW,230,6.0,6.0,44,0.00,,---,0.00,VWS V14.00,2013-02-04 21:28:00,
2013-02-04 16:33:00,48.2,27.3,30.05,SW,225,1.0,1.0,44,0.00,,---,0.00,VWS V14.00,2013-02-04 21:33:00,
2013-02-04 16:38:00,48.1,27.2,30.05,SW,228,3.0,3.0,44,0.00,,---,0.00,VWS V14.00,2013-02-04 21:38:00,
2013-02-04 16:43:00,48.1,27.2,30.05,SW,228,2.0,2.0,44,0.00,,---,0.00,VWS V14.00,2013-02-04 21:43:00,
2013-02-04 16:48:00,48.1,28.3,30.06,SW,226,5.0,5.0,46,0.00,,---,0.00,VWS V14.00,2013-02-04 21:48:00,
2013-02-04 16:53:00,48.1,27.2,30.05,SW,219,3.0,3.0,44,0.00,,---,0.00,VWS V14.00,2013-02-04 21:53:00,
2013-02-04 16:58:00,48.0,28.2,30.05,SW,219,4.0,5.0,46,0.00,,---,0.00,VWS V14.00,2013-02-04 21:58:00,
2013-02-04 17:03:00,48.0,27.7,30.05,WSW,239,3.0,3.0,45,0.00,,---,0.00,VWS V14.00,2013-02-04 22:03:00,
2013-02-04 17:08:00,47.8,27.0,30.05,WSW,239,4.0,4.0,44,0.00,,---,0.00,VWS V14.00,2013-02-04 22:08:00,
2013-02-04 17:13:00,47.7,26.9,30.05,WSW,240,4.0,4.0,44,0.00,,---,0.00,VWS V14.00,2013-02-04 22:13:00,
2013-02-04 17:18:00,47.6,27.9,30.04,WSW,240,2.0,3.0,46,0.00,,---,0.00,VWS V14.00,2013-02-04 22:18:00,
2013-02-04 17:23:00,47.5,27.8,30.04,WSW,240,2.0,3.0,46,0.00,,---,0.00,VWS V14.00,2013-02-04 22:23:00,
2013-02-04 17:28:00,47.4,27.7,30.05,WSW,240,2.0,2.0,46,0.00,,---,0.00,VWS V14.00,2013-02-04 22:28:00,
2013-02-04 17:33:00,47.3,27.0,30.05,WSW,240,3.0,3.0,45,0.00,,---,0.00,VWS V14.00,2013-02-04 22:33:00,
2013-02-04 17:38:00,47.1,26.9,30.04,SW,236,3.0,5.0,45,0.00,,---,0.00,VWS V14.00,2013-02-04 22:38:00,
2013-02-04 17:43:00,47.0,27.8,30.05,SW,234,3.0,3.0,47,0.00,,---,0.00,VWS V14.00,2013-02-04 22:43:00,
2013-02-04 17:48:00,46.9,28.2,30.05,SW,235,4.0,4.0,48,0.00,,---,0.00,VWS V14.00,2013-02-04 22:48:00,
2013-02-04 17:53:00,46.7,28.6,30.05,SW,231,4.0,5.0,49,0.00,,---,0.00,VWS V14.00,2013-02-04 22:53:00,
2013-02-04 17:58:00,46.5,28.4,30.05,SW,225,4.0,6.0,49,0.00,,---,0.00,VWS V14.00,2013-02-04 22:58:00,
2013-02-04 18:03:00,46.2,28.1,30.05,SW,227,5.0,5.0,49,0.00,,---,0.00,VWS V14.00,2013-02-04 23:03:00,
2013-02-04 18:08:00,45.9,27.8,30.04,SW,227,3.0,4.0,49,0.00,,---,0.00,VWS V14.00,2013-02-04 23:08:00,
2013-02-04 18:13:00,45.7,27.6,30.04,SW,227,0.0,0.0,49,0.00,,---,0.00,VWS V14.00,2013-02-04 23:13:00,
2013-02-04 18:18:00,45.5,28.0,30.04,SW,225,5.0,9.0,50,0.00,,---,0.00,VWS V14.00,2013-02-04 23:18:00,
2013-02-04 18:23:00,45.3,27.8,30.04,SW,224,2.0,3.0,50,0.00,,---,0.00,VWS V14.00,2013-02-04 23:23:00,
2013-02-04 18:28:00,45.1,28.1,30.04,SSW,213,1.0,2.0,51,0.00,,---,0.00,VWS V14.00,2013-02-04 23:28:00,
2013-02-04 18:33:00,45.0,28.5,30.04,SW,214,4.0,4.0,52,0.00,,---,0.00,VWS V14.00,2013-02-04 23:33:00,
2013-02-04 18:38:00,44.8,28.7,30.04,SW,214,4.0,4.0,53,0.00,,---,0.00,VWS V14.00,2013-02-04 23:38:00,
2013-02-04 18:43:00,44.6,29.0,30.04,SW,214,0.0,3.0,54,0.00,,---,0.00,VWS V14.00,2013-02-04 23:43:00,
2013-02-04 18:48:00,44.5,29.4,30.04,SW,214,0.0,0.0,55,0.00,,---,0.00,VWS V14.00,2013-02-04 23:48:00,
2013-02-04 18:53:00,44.3,29.2,30.04,SW,214,2.0,3.0,55,0.00,,---,0.00,VWS V14.00,2013-02-04 23:53:00,
2013-02-04 18:58:00,44.1,29.4,30.04,SW,214,0.0,0.0,56,0.00,,---,0.00,VWS V14.00,2013-02-04 23:58:00,
2013-02-04 19:03:00,43.9,29.7,30.05,SW,214,4.0,4.0,57,0.00,,---,0.00,VWS V14.00,2013-02-05 00:03:00,
2013-02-04 19:08:00,43.8,29.6,30.05,SW,214,7.0,7.0,57,0.00,,---,0.00,VWS V14.00,2013-02-05 00:08:00,
2013-02-04 19:13:00,43.6,29.4,30.05,SSW,213,1.0,4.0,57,0.00,,---,0.00,VWS V14.00,2013-02-05 00:13:00,
2013-02-04 19:18:00,43.5,29.3,30.05,SSW,213,5.0,7.0,57,0.00,,---,0.00,VWS V14.00,2013-02-05 00:18:00,
2013-02-04 19:23:00,43.4,29.2,30.05,SSW,213,4.0,6.0,57,0.00,,---,0.00,VWS V14.00,2013-02-05 00:23:00,
2013-02-04 19:28:00,43.2,29.0,30.04,SSW,213,0.0,0.0,57,0.00,,---,0.00,VWS V14.00,2013-02-05 00:28:00,
2013-02-04 19:33:00,43.0,29.2,30.04,SSW,213,0.0,0.0,58,0.00,,---,0.00,VWS V14.00,2013-02-05 00:33:00,
2013-02-04 19:38:00,42.8,29.1,30.04,SSW,213,2.0,3.0,58,0.00,,---,0.00,VWS V14.00,2013-02-05 00:38:00,
2013-02-04 19:43:00,42.6,28.9,30.05,SSW,213,3.0,4.0,58,0.00,,---,0.00,VWS V14.00,2013-02-05 00:43:00,
2013-02-04 19:48:00,42.4,29.1,30.05,SW,220,3.0,5.0,59,0.00,,---,0.00,VWS V14.00,2013-02-05 00:48:00,
2013-02-04 19:53:00,42.3,29.0,30.05,SW,229,7.0,7.0,59,0.00,,---,0.00,VWS V14.00,2013-02-05 00:53:00,
2013-02-04 19:58:00,42.2,28.9,30.05,SW,229,7.0,7.0,59,0.00,,---,0.00,VWS V14.00,2013-02-05 00:58:00,
2013-02-04 20:03:00,42.2,28.9,30.05,SW,234,5.0,6.0,59,0.00,,---,0.00,VWS V14.00,2013-02-05 01:03:00,
2013-02-04 20:08:00,42.1,28.8,30.05,SW,226,3.0,3.0,59,0.00,,---,0.00,VWS V14.00,2013-02-05 01:08:00,
2013-02-04 20:14:00,42.0,28.7,30.05,SW,230,4.0,7.0,59,0.00,,---,0.00,VWS V14.00,2013-02-05 01:14:00,
2013-02-04 20:19:00,41.9,28.6,30.05,SW,236,6.0,11.0,59,0.00,,---,0.00,VWS V14.00,2013-02-05 01:19:00,
2013-02-04 20:24:00,41.8,28.5,30.05,SW,225,6.0,6.0,59,0.00,,---,0.00,VWS V14.00,2013-02-05 01:24:00,
2013-02-04 20:29:00,41.8,29.0,30.05,SW,222,5.0,6.0,60,0.00,,---,0.00,VWS V14.00,2013-02-05 01:29:00,
2013-02-04 20:34:00,41.9,29.0,30.05,SW,230,8.0,8.0,60,0.00,,---,0.00,VWS V14.00,2013-02-05 01:34:00,
2013-02-04 20:39:00,42.0,29.1,30.05,SW,223,2.0,4.0,60,0.00,,---,0.00,VWS V14.00,2013-02-05 01:39:00,
2013-02-04 20:44:00,42.1,29.2,30.05,SW,222,7.0,7.0,60,0.00,,---,0.00,VWS V14.00,2013-02-05 01:44:00,
2013-02-04 20:49:00,42.2,29.3,30.05,SW,223,5.0,6.0,60,0.00,,---,0.00,VWS V14.00,2013-02-05 01:49:00,
2013-02-04 20:54:00,42.2,29.3,30.05,SW,236,2.0,6.0,60,0.00,,---,0.00,VWS V14.00,2013-02-05 01:54:00,
2013-02-04 20:59:00,42.3,29.4,30.05,SW,225,5.0,5.0,60,0.00,,---,0.00,VWS V14.00,2013-02-05 01:59:00,
2013-02-04 21:04:00,42.3,29.0,30.06,WSW,240,6.0,7.0,59,0.00,,---,0.00,VWS V14.00,2013-02-05 02:04:00,
2013-02-04 21:09:00,42.4,29.5,30.06,SW,223,4.0,4.0,60,0.00,,---,0.00,VWS V14.00,2013-02-05 02:09:00,
2013-02-04 21:14:00,42.4,29.5,30.06,WSW,257,4.0,5.0,60,0.00,,---,0.00,VWS V14.00,2013-02-05 02:14:00,
2013-02-04 21:19:00,42.4,29.5,30.06,WSW,252,4.0,5.0,60,0.00,,---,0.00,VWS V14.00,2013-02-05 02:19:00,
2013-02-04 21:24:00,42.4,29.5,30.07,WSW,241,4.0,5.0,60,0.00,,---,0.00,VWS V14.00,2013-02-05 02:24:00,
2013-02-04 21:29:00,42.3,29.4,30.07,WSW,246,0.0,1.0,60,0.00,,---,0.00,VWS V14.00,2013-02-05 02:29:00,
2013-02-04 21:34:00,42.2,29.7,30.07,WSW,251,0.0,0.0,61,0.00,,---,0.00,VWS V14.00,2013-02-05 02:34:00,
2013-02-04 21:39:00,42.0,29.1,30.07,SW,235,7.0,7.0,60,0.00,,---,0.00,VWS V14.00,2013-02-05 02:39:00,
2013-02-04 21:44:00,41.9,29.0,30.07,SW,234,3.0,5.0,60,0.00,,---,0.00,VWS V14.00,2013-02-05 02:44:00,
2013-02-04 21:49:00,41.7,29.3,30.07,SW,234,4.0,5.0,61,0.00,,---,0.00,VWS V14.00,2013-02-05 02:49:00,
2013-02-04 21:54:00,41.5,29.1,30.07,SW,234,2.0,3.0,61,0.00,,---,0.00,VWS V14.00,2013-02-05 02:54:00,
2013-02-04 21:59:00,41.2,29.2,30.06,SW,234,3.0,3.0,62,0.00,,---,0.00,VWS V14.00,2013-02-05 02:59:00,
2013-02-04 22:04:00,41.0,29.4,30.06,SW,234,0.0,0.0,63,0.00,,---,0.00,VWS V14.00,2013-02-05 03:04:00,
2013-02-04 22:09:00,40.8,29.2,30.06,SW,234,0.0,0.0,63,0.00,,---,0.00,VWS V14.00,2013-02-05 03:09:00,
2013-02-04 22:14:00,40.6,29.4,30.06,SW,234,0.0,0.0,64,0.00,,---,0.00,VWS V14.00,2013-02-05 03:14:00,
2013-02-04 22:19:00,40.4,29.2,30.05,SW,234,2.0,4.0,64,0.00,,---,0.00,VWS V14.00,2013-02-05 03:19:00,
2013-02-04 22:24:00,40.2,29.4,30.05,SW,234,5.0,5.0,65,0.00,,---,0.00,VWS V14.00,2013-02-05 03:24:00,
2013-02-04 22:29:00,40.1,29.3,30.05,SW,234,0.0,0.0,65,0.00,,---,0.00,VWS V14.00,2013-02-05 03:29:00,
2013-02-04 22:34:00,40.0,29.2,30.05,SW,234,0.0,0.0,65,0.00,,---,0.00,VWS V14.00,2013-02-05 03:34:00,
2013-02-04 22:39:00,39.8,29.4,30.05,SW,234,1.0,1.0,66,0.00,,---,0.00,VWS V14.00,2013-02-05 03:39:00,
2013-02-04 22:44:00,39.8,29.4,30.05,SW,234,0.0,4.0,66,0.00,,---,0.00,VWS V14.00,2013-02-05 03:44:00,
2013-02-04 22:49:00,39.7,29.3,30.05,SW,234,0.0,4.0,66,0.00,,---,0.00,VWS V14.00,2013-02-05 03:49:00,
2013-02-04 22:54:00,39.8,29.8,30.04,SW,234,0.0,0.0,67,0.00,,---,0.00,VWS V14.00,2013-02-05 03:54:00,
2013-02-04 22:59:00,39.8,29.8,30.04,SW,234,0.0,0.0,67,0.00,,---,0.00,VWS V14.00,2013-02-05 03:59:00,
2013-02-04 23:04:00,39.8,29.8,30.04,SW,234,1.0,3.0,67,0.00,,---,0.00,VWS V14.00,2013-02-05 04:04:00,
2013-02-04 23:09:00,39.9,29.9,30.04,SW,234,2.0,4.0,67,0.00,,---,0.00,VWS V14.00,2013-02-05 04:09:00,
2013-02-04 23:14:00,40.0,29.9,30.04,SW,234,0.0,1.0,67,0.00,,---,0.00,VWS V14.00,2013-02-05 04:14:00,
2013-02-04 23:19:00,40.1,30.0,30.04,SW,234,1.0,4.0,67,0.00,,---,0.00,VWS V14.00,2013-02-05 04:19:00,
2013-02-04 23:24:00,40.2,30.1,30.04,SW,234,2.0,4.0,67,0.00,,---,0.00,VWS V14.00,2013-02-05 04:24:00,
2013-02-04 23:29:00,40.2,30.1,30.04,SW,234,0.0,0.0,67,0.00,,---,0.00,VWS V14.00,2013-02-05 04:29:00,
2013-02-04 23:34:00,40.1,30.0,30.04,SW,234,0.0,0.0,67,0.00,,---,0.00,VWS V14.00,2013-02-05 04:34:00,
2013-02-04 23:39:00,40.0,29.9,30.03,SW,234,0.0,0.0,67,0.00,,---,0.00,VWS V14.00,2013-02-05 04:39:00,
2013-02-04 23:44:00,39.8,29.8,30.03,SW,234,0.0,0.0,67,0.00,,---,0.00,VWS V14.00,2013-02-05 04:44:00,
2013-02-04 23:49:00,39.5,29.8,30.03,SW,234,0.0,0.0,68,0.00,,---,0.00,VWS V14.00,2013-02-05 04:49:00,
2013-02-04 23:54:00,39.2,29.5,30.03,SW,234,0.0,0.0,68,0.00,,---,0.00,VWS V14.00,2013-02-05 04:54:00,
2013-02-04 23:59:00,38.8,29.9,30.03,SW,234,0.0,0.0,70,0.00,,---,0.00,VWS V14.00,2013-02-05 04:59:00,